Погода в Гэгэтуе

Россия / Республика Бурятия     50°38′32″N   105°13′19″E
темп.,
°C
ветер,
м/с
пор.,
м/с
влажн.,
%
обл.,
%
осадки,
мм/ч
давл.,
гПа
погр.,
м
9 мая, вс
вс923:00+4сз456875 0.0 1013100
02:00+3ссз347289 0.0 101371
05:00+3зсз117448 0.0 101311
08:00+5юз126059 0.0 1012325
11:00+11юз3547100 0.0 10091533
14:00+14ююз2437100 0.0 10061757
17:00+14зюз3532100 0.0 10052101
20:00+10в235664 0.0 100552
10 мая, пн
пн1023:00+7ссз3371100 0.1 100647
02:00+5ссз3577100 0.2 1008203
05:00+2ссз4880100 0.0 1010271
08:00+5с3561100 0.0 1011727
11:00+7с4349100 0.0 10101421
14:00+8ссз5542100 0.1 10101586
17:00+7ссз6742100 0.0 10121569
20:00+5ссз36569 0.0 1014908
11 мая, вт
вт1123:00+2зсз2274100 0.0 101650
02:000зсз238376 0.2 101766
05:00−1зсз228778 0.1 101718
08:00+4зсз356197 0.1 1017810
11:00+8сз5747100 0.0 10151617
14:00+10ссз654159 0.0 10151815
17:00+10ссз55401 0.0 10141282
20:00+6ссз46570 0.0 1016198
12 мая, ср
ср1223:00+3ссз33650 0.0 101744
02:00+2сз22640 0.0 101718
05:00+2сз22630 0.0 101613
08:00+6ююз22495 0.0 1014290
11:00+11ююз44395 0.0 1010935
14:00+14ююз3423100 0.0 10072402
17:00+15юв3325100 0.0 10052752
20:00+11св6942100 0.0 1006385
13 мая, чт
чт1323:00+8ссз3456100 0.0 1008167
02:00+7с4668100 0.1 1008212
05:00+5с51177100 0.2 1010551
08:00+6с5862100 0.3 1011763
11:00+7с6950100 0.0 10121454
14:00+9с893582 0.0 10121769
17:00+9ссз783530 0.0 10141970
20:00+6ссз47391 0.0 1016666